User: anonymous   Login
Location: Unspecified
(0.0000°N, 0.0000°E)
Time: 12:22:22
(UTC+00:00)
Language:

USA 142 - Orbit

View from above orbital plane
View from above orbital plane
View from above satellite
View from above satellite

Ground track
Ground track

The orbit data is extracted from the following two-line orbital elements,

1 25669U 99017A   16236.82954880 0.00000000  00000-0  00000-0 0    09
2 25669  28.8520 220.6743 7084509 316.2217   5.7350  2.32910135    00
Epoch (UTC): 23 August 2016 19:54:33
Eccentricity: 0.7084509
inclination: 28.8520°
perigee height: 631 km
apogee height: 34693 km
right ascension of ascending node: 220.6743°
argument of perigee: 316.2217°
revolutions per day: 2.32910135
mean anomaly at epoch: 5.7350°
orbit number at epoch: 0

The dashed part of the orbit path shows where the satellite is in the earth's shadow,  

DLR